Overview Statistics Trail Chart Weather Telemetry Raw packets
 

This is the latest recevied weather packets stored in our database for station/object IU3OVK-13. If no packets are shown the sender has not sent any weather packets the latest 10 day(s).

<< 1 2 3 4 5 6 7 >>
Time Temp. Humidity Pressure Rain* Wind** Luminosity Snow
1788596972 29.44° C 99% 1011.5 hPa - - - -
1788596352 30° C 99% 1010.6 hPa - - - -
1788595732 29.44° C 99% 1010.3 hPa - - - -
1788595112 29.44° C 99% 1010.7 hPa - - - -
1788594491 34.44° C 99% 1009.3 hPa - - - -
1788593249 32.22° C 99% 1009.6 hPa - - - -
1788592629 32.78° C 99% 1009.7 hPa - - - -
1788592009 35° C 99% 1008.8 hPa - - - -
1788591389 35° C 99% 1008.7 hPa - - - -
1788590146 30.56° C 99% 1010.1 hPa - - - -
1788589526 30.56° C 99% 1010.1 hPa - - - -
1788588904 22.78° C 99% 1010.9 hPa - - - -
1788588327 21.67° C 99% 1009.2 hPa - - - -
1788588284 21.67° C 99% 1009.2 hPa - - - -
1788587697 19.44° C 99% 1008.7 hPa - - - -
1788587663 19.44° C 99% 1008.7 hPa - - - -
1788586423 18.33° C 99% 1008.7 hPa - - - -
1788559051 23.33° C 99% 1010 hPa - - - -
1788558442 23.33° C 99% 1009.8 hPa - - - -
1788557811 22.78° C 99% 1010 hPa - - - -
1788557191 23.33° C 99% 1009.9 hPa - - - -
1788556570 23.33° C 99% 1010.1 hPa - - - -
1788555950 23.33° C 99% 1010.4 hPa - - - -
1788555330 23.89° C 99% 1010.1 hPa - - - -
1788554710 23.89° C 99% 1010 hPa - - - -

* Rain since midnight (hover to see other rain measurements)
** Current wind speed in m/s (hover to see current wind gust speed)